| time (UTC) | temp F | wind direction | speed MPH | gust MPH | rain 1hr in | rain 24hr in | rain mn in | humidity % | barometer mb |
| 20260906171530 | 53 | 276 | 2.0 | 4.0 | 0.01 | 2.82 | 2.78 | 97 | 1018.8 |
| 20260906170031 | 52 | 286 | 1.0 | 3.0 | 0.01 | 2.82 | 2.78 | 97 | 1018.7 |
| 20260906164537 | 52 | 282 | 2.0 | 4.0 | 0.01 | 2.82 | 2.77 | 97 | 1018.7 |
| 20260906154528 | 51 | 210 | 0.0 | 2.0 | 0.01 | 2.81 | 2.77 | 97 | 1018.6 |
| 20260906151609 | 51 | 157 | 0.0 | 0.0 | 0.02 | 2.80 | 2.76 | 97 | 1018.2 |
| 20260906150030 | 51 | 157 | 0.0 | 0.0 | 0.03 | 2.80 | 2.76 | 97 | 1018.1 |
| 20260906143028 | 51 | 157 | 0.0 | 0.0 | 0.05 | 2.79 | 2.74 | 96 | 1017.8 |
| 20260906141529 | 51 | 157 | 0.0 | 0.0 | 0.06 | 2.78 | 2.73 | 96 | 1017.6 |
| 20260906140033 | 51 | 157 | 0.0 | 0.0 | 0.05 | 2.77 | 2.72 | 96 | 1017.5 |
| 20260906134531 | 51 | 157 | 0.0 | 2.0 | 0.05 | 2.76 | 2.70 | 96 | 1017.5 |
| 20260906133107 | 50 | 252 | 0.0 | 2.0 | 0.03 | 2.74 | 2.68 | 96 | 1017.3 |
| 20260906130108 | 51 | 270 | 0.0 | 0.0 | 0.02 | 2.72 | 2.67 | 96 | 1017.3 |
| 20260906124531 | 50 | 270 | 0.0 | 1.0 | 0.01 | 2.71 | 2.67 | 96 | 1017.3 |
| 20260906123032 | 50 | 270 | 0.0 | 0.0 | 0.01 | 2.71 | 2.66 | 96 | 1017.5 |
| 20260906121529 | 50 | 270 | 0.0 | 1.0 | 0.00 | 2.70 | 2.66 | 96 | 1017.5 |
| 20260906120032 | 50 | 270 | 0.0 | 0.0 | 0.01 | 2.70 | 2.66 | 96 | 1017.5 |
| 20260906111606 | 50 | 270 | 0.0 | 0.0 | 0.01 | 2.70 | 2.65 | 96 | 1017.7 |
| 20260906110033 | 50 | 270 | 0.0 | 0.0 | 2.57 | 2.69 | 2.65 | 96 | 1017.7 |
| 20260906104530 | 50 | 270 | 0.0 | 1.0 | 2.58 | 2.69 | 2.65 | 96 | 1017.9 |
| 20260906101644 | 51 | 270 | 0.0 | 0.0 | 2.61 | 2.69 | 0.08 | 96 | 1018.3 |
| 20260906094531 | 51 | 270 | 0.0 | 2.0 | 0.06 | 0.11 | 0.05 | 96 | 1018.3 |
| 20260906093029 | 50 | 270 | 0.0 | 1.0 | 0.05 | 0.09 | 0.04 | 96 | 1018.3 |
| 20260906091529 | 50 | 112 | 0.0 | 2.0 | 0.04 | 0.08 | 0.03 | 96 | 1018.2 |
| 20260906090146 | 50 | 142 | 0.0 | 2.0 | 0.03 | 0.07 | 0.01 | 95 | 1018.3 |
| 20260906084606 | 50 | 247 | 0.0 | 0.0 | 0.01 | 0.05 | 0.00 | 95 | 1018.4 |
| 20260906083030 | 50 | 247 | 0.0 | 0.0 | 0.00 | 0.04 | 0.00 | 95 | 1018.3 |
| 20260906081530 | 50 | 231 | 0.0 | 2.0 | 0.00 | 0.04 | 0.00 | 95 | 1018.2 |
| 20260906080032 | 50 | 135 | 0.0 | 2.0 | 0.00 | 0.04 | 0.00 | 95 | 1018.1 |
| 20260906074529 | 50 | 154 | 0.0 | 3.0 | 0.00 | 0.04 | 0.00 | 95 | 1018.1 |
| 20260906073030 | 49 | 180 | 0.0 | 0.0 | 0.00 | 0.04 | 0.00 | 95 | 1018.1 |
| 20260906071531 | 49 | 180 | 0.0 | 1.0 | 0.00 | 0.04 | 0.00 | 95 | 1018.2 |
| 20260906070106 | 49 | 180 | 0.0 | 2.0 | 0.00 | 0.04 | 0.00 | 95 | 1018.3 |
| 20260906063029 | 48 | 202 | 0.0 | 1.0 | 0.00 | 0.04 | 0.04 | 94 | 1018.5 |
| 20260906061529 | 48 | 202 | 0.0 | 2.0 | 0.00 | 0.04 | 0.04 | 94 | 1018.6 |
| 20260906060030 | 48 | 163 | 0.0 | 2.0 | 0.00 | 0.05 | 0.04 | 94 | 1018.7 |
| 20260906053032 | 49 | 157 | 0.0 | 0.0 | 0.00 | 0.06 | 0.04 | 94 | 1018.7 |
| 20260906051530 | 50 | 157 | 0.0 | 0.0 | 0.00 | 0.06 | 0.04 | 94 | 1018.8 |
| 20260906044533 | 50 | 157 | 0.0 | 2.0 | 0.00 | 0.06 | 0.04 | 93 | 1018.9 |
| 20260906043030 | 50 | 156 | 2.0 | 5.0 | 0.00 | 0.06 | 0.04 | 93 | 1019.1 |
| 20260906041526 | 51 | 157 | 1.0 | 4.0 | 0.00 | 0.06 | 0.04 | 93 | 1019.0 |
| 20260906040029 | 50 | 156 | 2.0 | 5.0 | 0.00 | 0.06 | 0.04 | 92 | 1019.0 |
| 20260906034531 | 51 | 245 | 0.0 | 2.0 | 0.00 | 0.06 | 0.04 | 92 | 1018.8 |
| 20260906033028 | 51 | 203 | 0.0 | 1.0 | 0.00 | 0.06 | 0.04 | 91 | 1018.6 |
| 20260906031528 | 52 | 202 | 1.0 | 3.0 | 0.00 | 0.06 | 0.04 | 90 | 1018.5 |
| 20260906030029 | 53 | 158 | 0.0 | 2.0 | 0.00 | 0.06 | 0.04 | 89 | 1018.5 |
| 20260906023030 | 55 | 159 | 3.0 | 4.0 | 0.00 | 0.06 | 0.04 | 87 | 1018.4 |
| 20260906021528 | 57 | 157 | 0.0 | 3.0 | 0.00 | 0.06 | 0.04 | 85 | 1018.3 |
| 20260906014529 | 58 | 157 | 0.0 | 1.0 | 0.00 | 0.06 | 0.04 | 82 | 1018.3 |
| 20260906013030 | 59 | 165 | 0.0 | 2.0 | 0.00 | 0.06 | 0.04 | 82 | 1018.3 |
| 20260906011531 | 60 | 202 | 0.0 | 1.0 | 0.00 | 0.06 | 0.04 | 81 | 1018.5 |
| 20260906010106 | 61 | 202 | 1.0 | 3.0 | 0.00 | 0.06 | 0.04 | 80 | 1018.7 |
| 20260906003031 | 64 | 246 | 2.0 | 4.0 | 0.03 | 0.06 | 0.04 | 79 | 1018.8 |
| 20260906001530 | 63 | 160 | 0.0 | 4.0 | 0.04 | 0.06 | 0.04 | 82 | 1018.9 |
| 20260905234529 | 59 | 83 | 3.0 | 7.0 | 0.04 | 0.06 | 0.01 | 84 | 1018.9 |
| 20260905233029 | 60 | 172 | 2.0 | 4.0 | 0.01 | 0.03 | 0.00 | 82 | 1019.1 |
| 20260905231528 | 61 | 220 | 0.0 | 4.0 | 0.00 | 0.02 | 0.00 | 80 | 1019.0 |
| 20260905230031 | 62 | 184 | 3.0 | 7.0 | 0.00 | 0.02 | 0.00 | 81 | 1018.9 |
| 20260905223031 | 62 | 212 | 4.0 | 8.0 | 0.00 | 0.02 | 0.00 | 76 | 1018.9 |
| 20260905221531 | 63 | 210 | 3.0 | 6.0 | 0.00 | 0.02 | 0.00 | 73 | 1018.8 |
| 20260905220104 | 65 | 161 | 0.0 | 4.0 | 0.00 | 0.02 | 0.00 | 70 | 1018.6 |
| 20260905214606 | 65 | 40 | 0.0 | 4.0 | 0.00 | 0.02 | 0.00 | 72 | 1018.6 |
| 20260905213033 | 64 | 241 | 1.0 | 4.0 | 0.00 | 0.02 | 0.00 | 73 | 1018.8 |
| 20260905210029 | 63 | 168 | 0.0 | 4.0 | 0.00 | 0.02 | 0.00 | 75 | 1019.2 |
| 20260905203032 | 63 | 137 | 1.0 | 5.0 | 0.00 | 0.02 | 0.00 | 77 | 1019.2 |
| 20260905201530 | 61 | 132 | 2.0 | 5.0 | 0.00 | 0.02 | 0.00 | 79 | 1019.3 |
| 20260905200030 | 61 | 263 | 1.0 | 6.0 | 0.00 | 0.02 | 0.00 | 78 | 1019.4 |
| 20260905194531 | 62 | 239 | 1.0 | 4.0 | 0.00 | 0.02 | 0.00 | 80 | 1019.5 |
| 20260905193031 | 61 | 227 | 1.0 | 4.0 | 0.00 | 0.02 | 0.00 | 81 | 1019.5 |
| 20260905191528 | 61 | 230 | 2.0 | 5.0 | 0.00 | 0.02 | 0.00 | 82 | 1019.6 |
| 20260905190033 | 61 | 247 | 1.0 | 4.0 | 0.00 | 0.02 | 0.00 | 83 | 1019.7 |
| 20260905184530 | 61 | 242 | 1.0 | 4.0 | 0.00 | 0.02 | 0.00 | 83 | 1019.8 |
| 20260905183035 | 62 | 322 | 1.0 | 5.0 | 0.00 | 0.02 | 0.00 | 82 | 1019.8 |
| 20260905181605 | 61 | 351 | 2.0 | 7.0 | 0.00 | 0.02 | 0.00 | 86 | 1019.9 |
| 20260905180032 | 60 | 24 | 1.0 | 5.0 | 0.00 | 0.02 | 0.00 | 89 | 1020.0 |
| 20260905174606 | 58 | 20 | 0.0 | 3.0 | 0.00 | 0.02 | 0.00 | 93 | 1020.0 |
| 20260905173030 | 56 | 45 | 0.0 | 2.0 | 0.00 | 0.02 | 0.00 | 95 | 1020.0 |